Mt. Lincoln Summit Weather observations

Data are for 10 minute period ending at time listed.
 Day   Time   Solar   Ave.   Ave.  Ave.  Vector    Max.   Stn.  
  of    of     Rad.   Air    Rel.  Wind   Wind     Wind   Baro.  
Year   Day            Temp.  Hum.  Speed  Dir.     Gust   Pres. 
2016   (PST)   W/m2    F      %     mph   deg.      mph    mb    
-----------------------------------------------------------------
 148   15:50  999.0    48   85.9     1    271.5     2.4   586.20
 148   16:00  999.0    48   86.1     1    290.2     2.6   584.80
 148   16:10  999.0    48   85.7     2    274.8     2.6   584.50
 148   16:20  999.0    47   86.0     1    269.5     2.5   583.90
 148   16:30  999.0    47   86.2     1    283.2     2.8   585.30
 148   16:40  999.0    47   86.3     1    286.8     1.9   580.60
 148   16:50  999.0    47   86.3     1    270.3     2.4   583.00
 148   17:00  999.0    47   86.3     2    247.4     3.7   585.50
 148   17:10  999.0    46   86.4     2    247.4     3.1   582.70
 148   17:20  999.0    47   86.6     2    243.0     3.3   581.60
 148   17:30  999.0    46   86.5     2    253.5     2.9   578.70
 148   17:40  999.0    46   86.5     2    263.2     2.8   578.60
 148   17:50  999.0    46   86.5     2    256.9     3.0   578.00
 148   18:00  999.0    46   86.5     2    251.8     2.9   576.10
 148   18:10  999.0    45   86.5     2    259.1     2.8   577.90
 148   18:20  999.0    45   86.6     1    262.5     2.3   577.80
 148   18:30  999.0    45   86.4     1    266.4     2.4   577.40
 148   18:40  999.0    44   86.5     1    254.2     2.1   578.80
 148   18:50  999.0    44   86.5     2    249.6     2.4   578.40
 148   19:00  999.0    44   86.5     1    250.9     2.1   576.10
 148   19:10  999.0    43   86.3     1    247.8     1.9   573.90
 148   19:20  999.0    43   86.4     1    247.2     2.1   572.20
 148   19:30  999.0    42   86.4     1    247.2     1.8   577.20
 148   19:40  999.0    42   86.5     1    246.9     1.7   572.50
 148   19:50  999.0    42   86.5     1    246.5     1.5   569.90
 148   20:00  999.0    41   86.5     1    242.3     1.6   574.40
 148   20:10  999.0    41   86.5     1    232.7     1.4   575.40
 148   20:20  999.0    41   86.6     1    227.8     1.5   575.20
 148   20:30  999.0    41   86.6     1    224.0     1.7   569.60
 148   20:40  999.0    41   86.7     1    218.1     1.7   567.20
 148   20:50  999.0    41   86.8     1    220.7     1.7   567.70
 148   21:00  999.0    41   86.8     1    222.4     1.7   569.80
 148   21:10  999.0    41   86.9     1    223.5     1.6   571.60
 148   21:20  999.0    41   86.9     1    232.3     1.6   565.60
 148   21:30  999.0    41   86.8     1    230.1     1.5   571.80
 148   21:40  999.0    42   86.9     1    216.6     1.3   569.50
 148   21:50  999.0    42   87.0     1    214.3     1.3   568.10
 148   22:00  999.0    41   86.9     0    160.6     0.9   570.60
 148   22:10  999.0    40   87.0     0    105.3     1.0   568.90
 148   22:20  999.0    40   87.6     0    121.1     0.8   568.30
 148   22:30  999.0    40   87.8     0    124.9     0.6   566.60
 148   22:40  999.0    40   87.3     0     85.4     1.0   559.20
 148   22:50  999.0    40   87.3     1     94.2     1.0   561.70
 148   23:00  999.0    40   87.4     1     94.8     0.8   561.90
 148   23:10  999.0    40   87.5     1     98.1     0.9   561.70
 148   23:20  999.0    40   87.6     1     98.2     1.0   561.90
 148   23:30  999.0    40   87.6     1     93.2     1.2   559.90
 148   23:40  999.0    40   87.4     1     87.3     1.0   560.10
 148   23:50  999.0    40   87.0     1     81.2     1.2   562.70
 149    0:00  999.0    40   87.2     1     63.4     1.5   563.80
 149    0:10  999.0    41   87.1     1     56.1     1.5   559.50
 149    0:20  999.0    41   86.8     1     69.0     1.3   560.40
 149    0:30  999.0    40   86.5     1     84.9     1.5   561.10
 149    0:40  999.0    39   86.4     1     86.8     1.5   557.10
 149    0:50  999.0    38   86.5     1     86.5     1.5   562.20
 149    1:00  999.0    38   86.5     1     86.5     1.7   559.70
 149    1:10  999.0    37   86.5     2     90.1     1.8   563.10
 149    1:20  999.0    37   86.7     2     86.2     1.9   558.90
 149    1:30  999.0    38   86.7     1     84.1     1.7   558.80
 149    1:40  999.0    38   86.6     1     86.7     1.8   561.20
 149    1:50  999.0    37   86.6     1     85.3     1.7   563.80
 149    2:00  999.0    37   86.6     1     87.0     1.7   556.80
 149    2:10  999.0    37   86.7     1     87.6     1.8   556.10
 149    2:20  999.0    37   86.7     2     91.0     2.0   557.80
 149    2:30  999.0    37   86.8     2     93.3     2.2   556.80
 149    2:40  999.0    37   86.9     2     92.3     2.2   555.00
 149    2:50  999.0    37   86.8     2     92.2     2.2   557.30
 149    3:00  999.0    36   86.7     2     91.8     2.2   553.60
 149    3:10  999.0    36   86.8     2     92.1     2.1   554.10
 149    3:20  999.0    36   86.7     2     90.7     2.8   556.50
 149    3:30  999.0    35   86.7     2     92.4     2.7   559.90
 149    3:40  999.0    35   86.7     2     94.2     2.5   559.00
 149    3:50  999.0    35   86.9     2     96.5     2.3   557.20
 149    4:00  999.0    35   86.9     2     96.8     2.6   560.60
 149    4:10  999.0    35   87.1     2     97.8     2.8   556.30
 149    4:20  999.0    35   87.1     2     97.7     2.6   552.80
 149    4:30  999.0    35   87.0     2     97.9     2.5   558.30
 149    4:40  999.0    35   87.1     2     97.6     2.6   555.70
 149    4:50  999.0    35   87.1     2     97.2     2.4   557.50
 149    5:00  999.0    36   86.7     2     97.4     2.5   562.90
 149    5:10  999.0    37   86.1     2     99.4     2.4   560.90
 149    5:20  999.0    37   85.6     2     97.8     2.7   558.70
 149    5:30  999.0    38   85.0     1     99.6     2.6   557.10
 149    5:40  999.0    38   84.9     1     98.3     2.4   554.90
 149    5:50  999.0    38   84.5     2     97.9     2.5   555.10
 149    6:00  999.0    37   84.3     1     98.4     2.4   560.00
 149    6:10  999.0    38   84.0     1    101.5     2.2   563.00
 149    6:20  999.0    40   83.1     1    100.5     2.4   560.00
 149    6:30  999.0    41   82.3     1    104.6     2.6   561.50
 149    6:40  999.0    41   81.6     1    101.6     2.4   560.30
 149    6:50  999.0    42   81.2     1    105.0     2.3   559.90
 149    7:00  999.0    43   80.8     2    101.5     3.2   562.40
 149    7:10  999.0    44   80.2     1    102.9     2.4   562.50
 149    7:20  999.0    45   79.4     1    105.2     2.6   563.60
 149    7:30  999.0    46   78.8     0    104.1     2.2   568.30
 149    7:40  999.0    47   78.3     0    104.5     2.8   565.50
 149    7:50  999.0    48   77.8     0    100.6     2.2   565.60
 149    8:00  999.0    48   77.7     0    104.1     2.2   564.80
 149    8:10  999.0    49   77.6     0    102.1     2.8   563.60
 149    8:20  999.0    49   77.3     0     94.8     3.0   565.10
 149    8:30  999.0    48   78.2     1     89.0     3.7   561.80
 149    8:40  999.0    48   78.7     0    100.4     2.8   562.30
 149    8:50  999.0    48   78.7     0     92.6     3.4   564.60
 149    9:00  999.0    48   79.2     0     97.2     0.8   565.50
 149    9:10  999.0    50   79.5     0    100.7     0.8   572.80
 149    9:20  999.0    52   78.3     0    117.5     0.8   570.70
 149    9:30  999.0    53   77.5     0    111.4     0.8   567.80
 149    9:40  999.0    54   77.0     0    116.8     0.8   572.80
 149    9:50  999.0    53   77.0     0    127.3     0.7   573.70
 149   10:00  999.0    54   77.5     0    137.9     0.8   574.30
 149   10:10  999.0    55   77.5     0    140.6     0.6   573.50
 149   10:20  999.0    56   77.0     0    120.7     0.7   573.70
 149   10:30  999.0    56   76.8     0    154.0     0.6   573.20
 149   10:40  999.0    58   77.0     0    135.0     0.7   576.00
 149   10:50  999.0    59   76.0     0    173.5     0.7   577.10
 149   11:00  999.0    58   76.5     0    166.1     0.7   577.10
 149   11:10  999.0    57   77.7     0    182.2     0.6   574.10
 149   11:20  999.0    59   77.9     0    177.2     0.6   574.90
 149   11:30  999.0    58   77.1     0    193.3     0.8   577.30
 149   11:40  999.0    58   77.8     0    205.9     0.9   576.80
 149   11:50  999.0    56   77.4     0    220.9     0.9   579.00
 149   12:00  999.0    53   81.3     0    225.5     0.6   580.00
 149   12:10  999.0    55   81.2     0    237.5     0.8   579.90
 149   12:20  999.0    53   82.6     0    216.7     0.6   581.30
 149   12:30  999.0    53   82.8     0    245.9     0.9   578.50
 149   12:40  999.0    53   83.8     0    222.5     0.8   579.50
 149   12:50  999.0    54   83.3     0    275.8     0.6   579.00
 149   13:00  999.0    54   83.3     0    263.1     0.7   579.50
 149   13:10  999.0    55   83.3     0    217.5     0.8   581.20
 149   13:20  999.0    55   82.9     0    229.9     1.0   578.70
 149   13:30  999.0    56   82.8     0    207.3     1.0   581.70
 149   13:40  999.0    55   82.5     0    249.2     1.0   580.50
 149   13:50  999.0    54   83.2     0    260.3     0.7   581.40
 149   14:00  999.0    54   83.8     0    250.5     0.8   580.40
 149   14:10  999.0    54   83.8     0    270.7     0.7   585.80
 149   14:20  999.0    55   83.9     0    233.6     0.9   583.50
 149   14:30  999.0    54   83.0     0    258.3     1.0   585.70
 149   14:40  999.0    53   84.7     0    290.8     0.6   586.00
 149   14:50  999.0    53   84.9     0    266.9     0.8   583.40
 149   15:00  999.0    53   85.0     0    273.1     0.9   584.80
 149   15:10  999.0    53   85.3     0    279.8     0.8   584.60
 149   15:20  999.0    52   85.4     0    256.9     1.0   587.20
 149   15:30  999.0    54   85.5     0    245.3     1.0   585.10
 149   15:40  999.0    53   85.2     0    249.7     0.8   586.60

Return to Mt. Lincoln graphs page.


Western Regional Climate Center,wrcc@dri.edu